STARLINK-36454, 67470

Orbit data source: Space-Track

STARLINK-36454, 67470 is a payload satellite owned by SpaceX/Seattle (US) in LEO that was launched on Wed, 14 Jan 2026 UTC via an FALCON 9 launch vehicle from the Air Force Eastern Test Range (AFETR). Payload-class satellites include a variety of spacecraft equipped with specific instruments for various scientific and technological missions. These include communications satellites like Starlink; space stations such as the ISS; scientific satellites like the Hubble; Earth observation satellites from companies like Planet Labs, Umbra, and HawkEye 360; GPS; miniature CubeSats for education and research; and military/defense satellites.

Loading next visibility...
Identifier
67470, 2026-008AB
Orbit
LEO
Country
Flag of USUS
Related business
Manufacturer
SpaceX/Seattle
Mission
Operational Commercial Communications
Bus & Motor
STARLINK V2MO, Unknown motor
Mass
575 kg wet, ~530 kg dry
Launch date (UTC)
2026-01-14 (5 months ago)
Launch vehicle
FALCON 9
Launch site
Air Force Eastern Test Range (AFETR)
Object type
Payload
Rocket body
Debris
Shape & HBR
Box + 2 Pan, 17.7 m
Radar Cross Section
36.964 m², Large (>1 m²)

Expand to show TLE details & history
Last TLE update: 1 day ago

TLE from 1 day ago
0 STARLINK-36454
1 67470U 26008AB  26170.55732486  .00026316  00000-0  96198-3 0  9990
2 67470  43.0035 349.7358 0001550 246.7705 113.2983 15.27595339 25151
Epoch: 2026-06-19T13:22Z
TLE epoch observation values (Epoch: 2026-06-19T13:22:32.867Z)
Latitude
-0.00007°
Longitude
-118.68582°
Altitude
483.2 km
Speed
7.625 km/s
True Right ascension
23h 18m 56s
True Declination
0° 00' 00"
Sunlit
Object was in daylight at epoch
Visualization orbit readout
Latitude
Unknown
Longitude
Unknown
Altitude
Unknown
Speed
Unknown
Apparent Right ascension
Unknown
Apparent Declination
Unknown
Sunlit
N/A
Visualization observer readout
Local Sidereal Time
07:22:46
Azimuth
Unknown
Elevation
Unknown
Doppler factor
Unknown
Orbital elements
Apogee altitude
486.012 km
Perigee altitude
483.884 km
Semi-major axis
6,863.085 km
Eccentricity
0.00016
Inclination
43.0035°
RAAN
349.7358°
Arg. of periapsis
246.7705°
True anomaly
113.31461°
Mean anomaly
113.2983°
Eccentric anomaly
113.30646°
Mean motion
3.81737 °/min
Orbital period
94.31 mins
BSTAR
0.00096198
Loading maneuver chart data...
Computing Atmospheric mass density...
Loading historical data...
Loading historical data...
Loading historical data...
Loading historical data...
Loading historical data...
Loading historical data...
Loading historical data...

Documentation

Showing up to 5 results
|